Skip Page Navigation
NASA JPL Caltech
NASA Logo - Jet Propulsion Laboratory + View the NASA Portal
+ Center for Near-Earth Object Studies
JPL Home Earth Solar System Stars & Galaxies Technology
JPL Solar System Dynamics
BODIES ORBITS EPHEMERIDES TOOLS PHYSICAL DATA DISCOVERY FAQ SITE MAP

Significant website upgrade scheduled for September 27. More details available here.

JPL Small-Body Database Browser
Search: [ help ]  
24838 Abilunon (1995 UJ2)
Classification: Main-belt Asteroid          SPK-ID: 2024838
Ephemeris | Orbit Diagram | Orbital Elements | Mission Design | Physical Parameters | Discovery Circumstances ]

[ hide orbit diagram ]

For accurate long-term ephemerides, please instead use our Horizons system.This orbit viewer was implemented using two-body methods, and hence should not be used for determining accurate long-term trajectories (over several years or decades) or planetary encounter circumstances.


Orbital Elements at Epoch 2459396.5 (2021-Jul-01.0) TDB
Reference: JPL 34 (heliocentric ecliptic J2000)
 Element Value Uncertainty (1-sigma)   Units 
e .2191302196271328 3.5936e-08  
a 2.366911751315313 7.8786e-09 au
q 1.848249859411547 8.5813e-08 au
i 3.354327592369307 4.2662e-06 deg
node 12.01983850913295 5.9268e-05 deg
peri 3.611908702272311 5.9812e-05 deg
M 28.40383051106207 9.9634e-06 deg
tp 2459291.558821420532
(2021-Mar-18.05882142)
3.6493e-05 TDB
period 1330.060897029193
3.64
6.6409e-06
1.818e-08
d
yr
n .270664298758118 1.3514e-09 deg/d
Q 2.885573643219079 9.605e-09 au
  Orbit Determination Parameters
   # obs. used (total)      1399  
   data-arc span      9447 days (25.86 yr)  
   first obs. used      1995-09-21  
   last obs. used      2021-08-02  
   planetary ephem.      DE441  
   SB-pert. ephem.      SB441-N16  
   condition code      0  
   norm. resid. RMS      .52253  
   source      ORB  
   producer      Otto Matic  
   solution date      2021-Aug-25 15:21:33  

Additional Information
 Earth MOID = .848685 au 
 Jupiter MOID = 2.5812 au 
 T_jup = 3.512 
[ show covariance matrix ]

Ephemeris | Orbit Diagram | Orbital Elements | Mission Design | Physical Parameters | Discovery Circumstances ]

Physical Parameter Table
Parameter Symbol Value Units Sigma Reference Notes
absolute magnitude H 14.93   n/a E2021B10  

24838 Abilunon           Discovered 1995 Oct. 23 by M. Tichy at Klet.
Abilunon is the presumed name of an ancient Celtic town, founded in the first century B.C. on a strategic peninsula in the Vltava river. The remains of the town are at the foot of Klet mountain. The name was mentioned on a map of the world by Ptolemy.
NOTE: some special characters may not display properly (any characters within {} are an attempt to place the proper accent above a character)
Reference: 20011101/MPCPages.arcLast Updated: 2009-05-11
Ephemeris | Orbit Diagram | Orbital Elements | Mission Design | Physical Parameters | Discovery Circumstances ]
ABOUT SSD CREDITS/AWARDS PRIVACY/COPYRIGHT GLOSSARY LINKS
FirstGov 2021-Sep-27 05:27 UT
(server date/time)  
NASA Home Page
Site Manager:   Ryan S. Park
Webmaster  Alan B. Chamberlin